Location: Alessandria
(44.9000°N, 8.6170°E)
Time: 03:54:14
(UTC+02:00)

ISS - Pass Details

Date: 16 May 2021
Orbit: 417 x 422 km, 51.6° (Epoch: 14 June)

Event Time Altitude Azimuth Distance (km) Brightness Sun altitude
Rises 01:14:37 0° 288° (WNW) 2,368 0.3 -26.0°
Reaches altitude 10° 01:16:58 10° 303° (WNW) 1,505 -0.6 -26.0°
Maximum altitude 01:19:49 25° 0° (N) 900 -1.4 -26.0°
Drops below altitude 10° 01:22:41 10° 58° (ENE) 1,507 -0.6 -26.0°
Sets 01:25:02 0° 72° (ENE) 2,373 0.3 -26.0°
